Home   Weather   Neuquén   Past weeks
Flag for Argentina

Past Weather in Neuquén, Neuquén, Argentina — Yesterday and Last 2 Weeks

Now
68 °F

Clear.


Feels Like: 68 °F
Forecast: 62 / 34 °F
Wind: 15 mph from Southwest

Location: Neuquen Aerodrome

Current Time: Apr 4, 2020 at 1:32:36 am

Latest Report: Apr 4, 2020 at 12:00 am


Visibility: 9 mi

Pressure: 29.77 "Hg

Humidity: 41%

Dew Point: 44 °F

Location of NeuquénLocation

Past Weather in Neuquén — Graph

°F

Neuquén Temperature Yesterday

Maximum temperature yesterday: 80 °F (at 5:00 pm)
Minimum temperature yesterday: 47 °F (at 8:00 am)
Average temperature yesterday: 63 °F

High & Low Weather Summary for the Past Weeks

 TemperatureHumidityPressure
High88 °F (Mar 23, 4:00 pm)93% (Apr 1, 7:00 am)30.39 "Hg (Apr 1, 7:00 am)
Low40 °F (Apr 2, 8:00 am)15% (Mar 21, 4:00 pm)29.67 "Hg (Mar 27, 6:00 pm)
Average67 °F52%29.95 "Hg
* Reported Mar 20 12:00 am — Apr 4 12:00 am, Neuquén. Weather by CustomWeather, © 2020

Note: Actual official high and low records may vary slightly from our data, if they occured in-between our weather recording intervals... More about our weather records

Neuquén Weather History for the Previous 24 Hours

Scroll right to see more
 ConditionsComfort  
Time TempWeatherWind HumidityBarometerVisibility
12:00 am
Sat, Apr 4
68 °FClear.15 mph41%29.77 "Hg9 mi
11:00 pm
Fri, Apr 3
70 °FClear.8 mph42%29.76 "Hg9 mi
10:00 pm60 °FPassing clouds.5 mph75%29.75 "Hg9 mi
9:00 pm63 °FPassing clouds.No wind72%29.72 "Hg9 mi
8:00 pm67 °FPassing clouds.No wind56%29.70 "Hg9 mi
7:00 pm76 °FScattered clouds.No wind49%29.69 "Hg9 mi
6:00 pm79 °FPassing clouds.2 mph36%29.70 "Hg9 mi
5:00 pm80 °FPassing clouds.2 mph29%29.72 "Hg9 mi
4:00 pm80 °FPassing clouds.3 mph28%29.74 "Hg9 mi
3:00 pm78 °FSunny.3 mph32%29.77 "Hg9 mi
2:00 pm75 °FSunny.3 mph32%29.83 "Hg9 mi
1:00 pm72 °FSunny.No wind37%29.87 "Hg9 mi
12:00 pm68 °FSunny.3 mph39%29.91 "Hg9 mi
11:00 am64 °FSunny.5 mph37%29.93 "Hg9 mi
10:00 am60 °FSunny.No wind53%29.95 "Hg9 mi
9:00 am49 °FSunny.No wind73%29.98 "Hg9 mi
8:00 am47 °FSunny.No wind80%29.98 "Hg9 mi
7:00 am48 °FClear.No wind83%29.98 "Hg9 mi
6:00 am49 °FClear.No wind77%30.00 "Hg9 mi
5:00 am50 °FClear.2 mph72%30.03 "Hg9 mi
4:00 am53 °FClear.No wind65%30.06 "Hg9 mi
3:00 am53 °FClear.No wind67%30.09 "Hg9 mi
2:00 am55 °FClear.No wind59%30.09 "Hg9 mi
1:00 am57 °FClear.2 mph52%30.12 "Hg9 mi
Weather by CustomWeather, © 2020

See weather overview

Advertising